STARLINK-1067, 44771

Orbit data source: Space-Track

STARLINK-1067, 44771 is a payload satellite owned by SpaceX/Seattle (US) in LEO that was launched on Mon, 11 Nov 2019 UTC via an FALCON 9 launch vehicle from the Air Force Eastern Test Range (AFETR). Payload-class satellites include a variety of spacecraft equipped with specific instruments for various scientific and technological missions. These include communications satellites like Starlink; space stations such as the ISS; scientific satellites like the Hubble; Earth observation satellites from companies like Planet Labs, Umbra, and HawkEye 360; GPS; miniature CubeSats for education and research; and military/defense satellites.

Loading next visibility...
Identifier
44771, 2019-074BL
Orbit
LEO
Country
Flag of USUS
Related business
Manufacturer
SpaceX/Seattle
Mission
Partially operational Commercial Communications
Bus & Motor
STARLINK, Unknown motor
Mass
260 kg wet, ~248 kg dry
Launch date (UTC)
2019-11-11 (6 years ago)
Launch vehicle
FALCON 9
Launch site
Air Force Eastern Test Range (AFETR)
Object type
Payload
Rocket body
Debris
Shape & HBR
Box + 1 Pan, 10.1 m
Radar Cross Section
13.562 m², Large (>1 m²)

Expand to show TLE details & history
Last TLE update: 7 hours ago

TLE from 7 hours ago
0 STARLINK-1067
1 44771U 19074BL  26037.66670139  .00180003  00000-0  31444-2 0  9990
2 44771  53.0546 353.9302 0008131  96.2248  98.3753 15.49514868  5794
Epoch: 2026-02-06T16:00Z
TLE epoch observation values (Epoch: 2026-02-06T16:00:03.000Z)
Latitude
-11.84277°
Longitude
166.13887°
Altitude
422.134 km
Speed
7.658 km/s
True Right ascension
12h 11m 48s
True Declination
-11° 46' 14"
Sunlit
Object was in full shadow at epoch
Visualization orbit readout
Latitude
Unknown
Longitude
Unknown
Altitude
Unknown
Speed
Unknown
Apparent Right ascension
Unknown
Apparent Declination
Unknown
Sunlit
N/A
Visualization observer readout
Local Sidereal Time
01:30:06
Azimuth
Unknown
Elevation
Unknown
Doppler factor
Unknown
Orbital elements
Apogee altitude
423.946 km
Perigee altitude
412.894 km
Semi-major axis
6,796.557 km
Eccentricity
0.00081
Inclination
53.0546°
RAAN
353.9302°
Arg. of periapsis
96.2248°
True anomaly
98.46747°
Mean anomaly
98.3753°
Eccentric anomaly
98.42138°
Mean motion
3.87356 °/min
Orbital period
92.94 mins
BSTAR
0.0031444
Loading maneuver chart data...
Computing Atmospheric mass density...

Documentation

Showing up to 5 results
|